Regional Weather Roundup
Issued by NWS

Home | Current Version | Previous Version | Text Only | Print | Product List | Glossary On
Versions: 1 2 3 4 5 6 7 8 9 10 11 12 13 14 15 16 17 18 19 20 21 22 23 24 25 26 27 28 29 30 31 32 33 34 35 36 37 38 39 40 41 42 43 44 45 46 47 48 49 50
000
ASUS45 KBOI 110310
RWRID

IDAHO REGIONAL WEATHER ROUNDUP
NATIONAL WEATHER SERVICE BOISE ID
800 PM MST SAT DEC 10 2016

NOTE: "FAIR" INDICATES FEW OR NO CLOUDS BELOW 12000 FEET
WITH NO SIGNIFICANT WEATHER AND/OR OBSTRUCTIONS TO VISIBILITY

IDZ012-014-110400-
SOUTHWEST IDAHO


CITY           SKY/WX    TMP DP  RH WIND       PRES   REMARKS
BOISE          FOG       31  31 100 SW5       29.93R VSB 1/4 WCI  26
CALDWELL       MIX PCPN  31  30  96 W7        29.94F VSB 1/2 WCI  24
MOUNTAIN HOME  CLOUDY    33  33 100 N6        29.91R WCI  28
$$

IDZ016-017-110400-
SOUTHCENTRAL IDAHO


CITY           SKY/WX    TMP DP  RH WIND       PRES   REMARKS
BURLEY         CLOUDY    36  32  85 W13       29.86R WCI  27
JEROME         CLOUDY    35  34  96 SW6       29.88R WCI  30
TWIN FALLS     CLOUDY    36  33  89 SW9       29.88R WCI  29
$$

IDZ019>023-110400-
SOUTHEAST IDAHO


CITY           SKY/WX    TMP DP  RH WIND       PRES   REMARKS
IDAHO FALLS    CLOUDY    34  32  92 SW13      29.80R WCI  25
POCATELLO      CLOUDY    36  33  89 SW21      29.83R WCI  25
REXBURG        CLOUDY    33  32  96 SW9       29.78S WCI  25
$$

IDZ006-010-011-018-031-032-110400-
CENTRAL IDAHO MOUNTAINS


CITY           SKY/WX    TMP DP  RH WIND       PRES   REMARKS
MCCALL         CLEAR     22  19  89 E5        29.84S WCI  16
HAILEY         CLEAR     32  19  59 NW7       29.85R WCI  26
STANLEY          N/A     25  21  85 CALM      29.84R
SALMON         PTCLDY    14  10  85 CALM      29.87R
CHALLIS        PTCLDY    19  17  92 E3        29.81R
$$

IDZ002-004-006-007-026-110400-
NORTHERN IDAHO


CITY           SKY/WX    TMP DP  RH WIND       PRES   REMARKS
LEWISTON       PTCLDY    19  17  92 SE5       29.98S WCI  12
LOWELL           N/A     32  29  88 CALM      30.00R
COEUR D`ALENE  LGT SNOW  21  19  92 NE5       29.92F FOG     WCI  15
MULLAN PASS    FOG       17  15  92 VRB6      29.74S VSB 3/4 WCI   9
$$



USA.gov is the U.S. government's official web portal to all federal, state and local government web resources and services.